www.pogodaiklimat.ru

Погода и климат >> Архив погоды >> Белиз >> Belize


ПОГОДА в Belize

  • Прогноз погоды в Belize
  • Монитор погоды в Belize
  • Климат города

АРХИВ ПОГОДЫ в Belize

Время (UTC), дата Ветер
(напр.,м/с)
 
Видим.   Явления Облачность Т
(С)
Тd
(С)
f
(%)
Тe
(С)
Тes
(С)
Комфортность P
(гПа)
Po
(гПа)
Тmin
(С)
Tmax
(С)
R
(мм)
R24
(мм)
S
(см)
03 5.12 штиль 0 25 км 4/4 600 м
[Cu Sc]
+24.0 +22.6 92 +31 +31 очень
душно
1015.5 1016.0
06 5.12 штиль 0 25 км 6/6 480 м
[Cu med, cong]
+23.5 +22.8 96 +31 +31 очень
душно
1014.7 1015.0
09 5.12 штиль 0 25 км 1/1 480 м
[Cu med, cong]
+22.3 +21.9 98 +30 +30 очень
душно
1013.7 1014.0
12 5.12 штиль 0 500 м туман 3/3 60 м
[Frnb]
+22.1 +22.1 100 +29 +29 очень
душно
1015.0 1015.0 +22.0 +29.5
15 5.12 СЗ 2 15 км 9/9 450 м
[Cu Sc]
+24.5 +23.9 96 +33 +34 очень
душно
1016.9 1017.0
18 5.12 В 3 20 км осадки на расстоянии 5/5 630 м
[Cu Sc Ac trans]
+25.8 +23.5 87 +35 +41 очень
душно
1015.1 1015.0
21 5.12 СВ 1 20 км в посл. час дождь {ливн. осадки} 8/8 540 м
[Cu Sc]
+25.8 +23.7 88 +35 +36 очень
душно
1013.8 1014.0
00 6.12 штиль 0 25 км {ливн. осадки, дождь} 4/4 600 м
[Cu Sc]
+25.5 +23.7 90 +35 +35 очень
душно
1014.7 1015.0 +21.6 +29.0 2
03 6.12 ЮВ 2 20 км слабый дождь 9/9 450 м
[Cu Sc]
+25.0 +23.3 90 +33 +33 очень
душно
1016.3 1016.0
06 6.12 СЗ 2 20 км {дождь} 9/1 450 м
[Cu Sc Ac trans]
+23.5 +23.2 98 +31 +31 очень
душно
1015.4 1015.0 0.3
09 6.12 СЗ 2 20 км {ливн. осадки} 9/9 450 м
[Cu Sc]
+23.3 +23.2 99 +33 +33 очень
душно
1014.3 1014.0
12 6.12 СЗ 1 16 км {ливн. осадки} 6/5 120 м
[Cu Sc Ci fib]
+23.5 +23.4 99 +32 +32 очень
душно
1015.2 1015.0 +23.0 +29.0 1
15 6.12 В 1 25 км 4/4 570 м
[Cu med, cong Ci fib]
+25.7 +24.6 94 +36 +40 очень
душно
1017.1 1017.0
18 6.12 В 4 25 км {ливн. осадки} 5/4 750 м
[Cu hum Ci sp]
+29.5 +23.9 72 +41 +46 опасность
перегрева
1015.6 1016.0 1
21 6.12 В 5 25 км 9/4 720 м
[Cu med, cong Ac trans Ci fib]
+29.2 +24.4 75 +41 +42 опасность
перегрева
1013.4 1013.0
00 7.12 СВ 2 25 км 9/3 630 м
[Cu Sc Ci sp]
+27.1 +23.6 81 +37 +37 очень
душно
1014.6 1015.0 +23.0 +29.9
03 7.12 В 2 15 км гроза, ливневой дождь 9/9 360 м
[Cb cap Ci ing]
+24.8 +23.7 94 +34 +34 очень
душно
1016.6 1017.0
06 7.12 СВ 1 12 км гроза, ливневой дождь 9/9 300 м
[Cb cap Ac As Ci ing]
+23.1 +22.7 98 +32 +32 очень
душно
1014.9 1015.0 8
09 7.12 С 2 15 км гроза без осадков {дождь} 9/9 300 м
[Cb cap]
+22.8 +22.7 99 +31 +31 очень
душно
1014.6 1015.0
12 7.12 штиль 0 18 км {гроза, дождь} 8/8 450 м
[Cu Sc Ci sp]
+22.7 +22.4 98 +31 +31 очень
душно
1014.4 1014.0 +22.5 +29.9 2
15 7.12 СЗ 1 20 км 8/6 210 м
[Cu Sc Ac trans Ci fib]
+25.5 +23.8 90 +35 +37 очень
душно
1015.5 1016.0
18 7.12 СВ 2 20 км 9/9 500 м
[Cu Sc Ac As Ci sp]
+26.6 +24.3 87 +37 +38 очень
душно
1014.4 1014.0
21 7.12 В 3 25 км 8/4 600 м
[Cu Sc Ac trans Ci sp]
+27.6 +23.3 77 +37 +39 очень
душно
1011.9 1012.0
00 8.12 штиль 0 28 км 5/4 540 м
[Cu Sc Ac trans Ci sp]
+25.0 +23.6 92 +34 +34 очень
душно
1012.6 1013.0 +22.5 +28.0
03 8.12 штиль 0 25 км 1/1 540 м
[Cu Sc]
+23.6 +22.8 95 +31 +31 очень
душно
1013.4 1013.0
06 8.12 штиль 0 25 км 1/1 480 м
[Cu Sc]
+22.6 +22.5 99 +31 +31 очень
душно
1012.8 1013.0
09 8.12 штиль 0 25 км 9/9 450 м
[Cu Sc]
+22.6 +22.4 99 +31 +31 очень
душно
1012.2 1012.0
12 8.12 З 1 3000 м дымка 5/5 60 м
[Sc]
+21.8 +21.5 98 +28 +28 душно 1012.2 1012.0 +21.6 +28.0
15 8.12 штиль 0 4000 м дымка 9/9 180 м
[St]
+23.9 +23.2 96 +32 +33 очень
душно
1013.6 1014.0
18 8.12 штиль 0 20 км 8/8 660 м
[Cu Sc Ci fib]
+29.5 +24.7 75 +42 +45 опасность
перегрева
1011.4 1011.0
21 8.12 В 2 25 км осадки на расстоянии 6/6 660 м
[Cu Sc Ci fib]
+28.0 +24.6 82 +40 +42 очень
душно
1009.4 1009.0
00 9.12 ЮЗ 2 25 км 8/8 660 м
[Cu Sc Ci fib]
+26.0 +24.5 91 +36 +36 очень
душно
1010.8 1011.0 +21.4 +29.7
03 9.12 ЮЗ 1 25 км 1/1 600 м
[Cu Sc]
+24.0 +23.6 98 +33 +33 очень
душно
1013.3 1013.0
06 9.12 СЗ 3 15 км слабый дождь {ливн. осадки} 9/9 1350 м
[Sc]
+23.4 +22.7 96 +33 +33 очень
душно
1013.9 1014.0 7
09 9.12 З 3 20 км {дождь} 9/9 180 м
[Sc]
+22.5 +21.8 96 +30 +30 очень
душно
1013.8 1014.0
12 9.12 СЗ 4 15 км в посл. час дождь 9/9 210 м
[Sc Ac trans]
+22.0 +21.1 95 +28 +28 душно 1016.8 1017.0 +21.9 +29.7 0.1
15 9.12 СЗ 6 25 км 9/8 420 м
[Cu Sc Ac trans]
+23.5 +19.8 80 +29 +29 душно 1020.6 1021.0
18 9.12 С 8 25 км {ливн. осадки} 6/6 600 м
[Cu Sc Ac trans Ci sp]
+24.2 +18.7 71 +29 +30 душно 1020.3 1020.0 0.0
21 9.12 СЗ 7 20 км 9/5 600 м
[Cu Sc Ac As Ci fib]
+24.0 +17.3 66 +28 +28 душно 1019.6 1020.0
00 10.12 СЗ 4 20 км 9/9 500 м
[St Ci fib]
+21.9 +17.5 76 +26 +26 душно 1021.5 1022.0 +21.4 +25.0
03 10.12 С 5 20 км 8/8 500 м
[St]
+20.6 +16.6 78 +24 +24 комфорт 1024.3 1024.0
06 10.12 С 4 25 км 1/1 500 м
[Cu Sc]
+18.4 +14.9 80 +19 +19 1024.9 1025.0
09 10.12 СЗ 3 25 км 1/0
[Ci fib]
+15.6 +13.8 89 +15 +15 1024.4 1024.0
12 10.12 З 2 25 км 4/1 1260 м
[Sc Ci fib]
+14.9 +14.1 95 +14 +14 1025.5 1026.0 +14.6 +25.0
15 10.12 СЗ 4 28 км 9/1 1050 м
[Sc diur, vesp Ci fib]
+20.4 +14.3 68 +23 +26 комфорт 1026.9 1027.0
18 10.12 СЗ 5 28 км 8/4 840 м
[Cu Sc Ac trans Ci fib]
+24.7 +14.1 52 +27 +30 жарко 1025.1 1025.0
21 10.12 СЗ 5 28 км 9/5 800 м
[Cu Sc Ac trans Ci sp]
+24.5 +15.1 56 +21 +21 комфорт 1023.3 1023.0
00 11.12 С 2 25 км 9/1 660 м
[Cu Sc Ci sp]
+21.0 +16.3 75 +25 +25 комфорт 1024.4 1024.0 +14.5 +25.5
03 11.12 штиль 0 25 км 9/1 630 м
[Cu Sc Ci sp]
+18.1 +16.4 90 +18 +18 1026.4 1026.0
06 11.12 З 2 28 км 3/0
[Ci fib]
+17.0 +16.1 94 +18 +18 1025.5 1026.0
09 11.12 З 2 28 км 1/0
[Ci fib]
+16.0 +15.2 95 +16 +16 1024.1 1024.0
12 11.12 З 2 28 км 9/1 1140 м
[Sc Ci fib]
+15.6 +14.8 95 +16 +16 1024.6 1025.0 +15.4 +25.5
15 11.12 СЗ 3 25 км 9/1 1200 м
[Sc Ci sp]
+18.4 +16.2 87 +19 +23 1025.8 1026.0
18 11.12 СЗ 3 25 км 9/1 660 м
[Cu Sc Ci sp]
+22.5 +16.3 68 +27 +35 душно 1023.2 1023.0
21 11.12 СЗ 6 25 км 9/4 800 м
[Cu Sc Ci sp]
+24.5 +14.8 55 +27 +28 жарко 1020.6 1021.0
00 12.12 штиль 0 25 км 9/3 750 м
[Cu Sc Ci sp]
+21.0 +17.2 79 +25 +25 комфорт 1021.5 1022.0 +15.3 +25.5

 

Местоположение метеостанции Belize (Белиз): широта 17.53 долгота -88.30 высота над уровнем моря 5 м.

В архиве по умолчанию представлена погода в Belize за последнюю неделю. Архивные данные за месяц целиком и за предыдущие месяцы, начиная с января 2011 года, Вы можете получить, выбрав интересующий диапазон дат из раскрывающегося списка и нажав кнопку "Ввод!".

Внимание! Время в таблицах - всемирное. Для получения местного времени необходимо прибавить поправку, которая в Belize равна -4 ч.

Смотрите также архив погоды в соседних городах и на ближайших метеорологических станциях:

Погода в Chetumal (Мексика) (106 км)
Погода в Flores (Гватемала) (181 км)
Погода в Puerto Barrios (Гватемала) (204 км)
Погода в Tela (Гондурас) (219 км)
Погода в Roatan (Гондурас) (233 км)
Погода в La Mesa (Гондурас) (235 км)
Погода в Felipe Carrillo Puerto (Мексика) (245 км)
Погода в La Ceiba (Гондурас) (252 км)
Погода в Yoro (Гондурас) (292 км)
Погода в Trujillo (Гондурас) (309 км)

Пояснения к столбцам:

Ветер - указаны скорость ветра в м/с - средняя за 10 мин, порывы в срок и между сроками (в фигурных скобках) и направление, откуда дует ветер: С - северный, СВ - северо-восточный, В - восточный, ЮВ - юго-восточный, Ю - южный, ЮЗ - юго-западный, З - западный, СЗ - северо-западный.
Видимость - горизонтальная дальность видимости в метрах или километрах. При видимости от 1 до 10 км при отсутствии осадков обычно наблюдается дымка, при ухудшении видимости до 1 км и менее - туман. В сухую погоду видимость может ухудшаться дымом, пылью или мглою.
Явления - указаны атмосферные явления, наблюдавшиеся в срок или в последний час перед сроком; фигурными скобками обозначены явления, наблюдавшиеся между сроками (за 1-3 часа до срока); квадратными скобками обозначены град или гололедные отложения с указанием их диаметра в мм.
Облачность - указаны через наклонную черту общая и нижняя облачность в баллах и высота нижней границы облаков в метрах; квадратными скобками обозначены формы облаков: Ci - перистые, Cs - перисто-слоистые, Cc - перисто-кучевые, Ac - высококучевые, As - высокослоистые, Sc - слоисто-кучевые, Ns - слоисто-дождевые, Cu - кучевые, Cb - кучево-дождевые. Подробнее классификацию облаков см. в Атласе облаков (PDF).
T - Температура воздуха - температура, измеренная на высоте 2 м над землей.
Td - Температура точки росы - температура, при понижении до которой содержащийся в воздухе водяной пар достигнет насыщения.
f - Относительная влажность воздуха - влажноcть воздуха, измеренная на высоте 2 м над землей.
Te - Эффективная температура - температура, которую ощущает одетый по сезону человек в тени. Характеристика душности погоды. При расчете учитывается влияние влажности воздуха и скорости ветра на теплоощущения человека.
Tes - Эффективная температура на солнце - температура, которую ощущает человек, с поправкой на солнечный нагрев. Характеристика знойности погоды. Зависит от высоты солнца над горизонтом, облачности и скорости ветра. Ночью, в пасмурную погоду, а также при ветре 12 м/с и более поправка равна нулю.
P - Атмосферное давление - приведенное к уровню моря атмосферное давление.
Po - Атмосферное давление - измеренное на уровне метеостанции атмосферное давление.
Tmin - Минимальная температура - минимум температуры воздуха на высоте 2 м над землей.
Tmax - Максимальная температура - максимум температуры воздуха на высоте 2 м над землей.
R - Количество осадков - Количество выпавших осадков за период времени, мм. При наведении курсора мыши на число - период времени, за который выпало указанное количество осадков.
R24 - Количество осадков - Количество выпавших осадков за 24 часа, мм.
S - Снежный покров - Высота снежного покрова, см. При наведении курсора мыши на число - состояние снежного покрова и степень покрытия местности в баллах.